Location: Newark
(31.9382°N, 81.3138°W)
Time: 00:21:42
(UTC+00:00)

ISS - Visible Passes

Search period start: 29 March 2020 00:00
Search period end: 08 April 2020 00:00
Orbit: 417 x 423 km, 51.6° (Epoch: 29 March)

Date Brightness Start Highest point End Pass type
(mag) Time Alt. Az. Time Alt. Az. Time Alt. Az.
03 Apr -0.7 02:03:45 10° NNW 02:04:15 13° NNW 02:04:15 13° NNW visible
04 Apr -1.9 01:16:43 10° NNW 01:18:53 21° NNE 01:18:53 21° NNE visible
05 Apr -1.5 00:30:00 10° N 00:31:47 14° NNE 00:33:35 10° ENE visible
05 Apr -0.9 02:05:33 10° NW 02:06:34 18° WNW 02:06:34 18° WNW visible
06 Apr -3.8 01:18:06 10° NW 01:21:21 70° NNE 01:21:21 70° NNE visible
07 Apr -2.9 00:30:50 10° NNW 00:33:59 36° NE 00:36:12 16° ESE visible
07 Apr -0.6 02:08:34 10° W 02:09:11 12° W 02:09:11 12° W visible
